Regional Weather Roundup
Issued by NWS Upton, NY

Current Version | Previous Version | Text Only | Print | Product List | Glossary Off
Versions: 1 2 3 4 5 6 7 8 9 10 11 12 13 14 15 16 17 18 19 20 21 22 23 24 25 26 27 28 29 30 31 32 33 34 35 36 37 38 39 40 41 42 43 44 45 46 47 48 49 50
000 ASUS41 KOKX 211808 RWROKX REGIONAL WEATHER ROUNDUP NATIONAL WEATHER SERVICE NEW YORK NY 100 PM EST TUE FEB 21 2017 NOTE: "FAIR" INDICATES FEW OR NO CLOUDS BELOW 12,000 FEET WITH NO SIGNIFICANT WEATHER AND/OR OBSTRUCTIONS TO VISIBILITY. NYZ071-072-176-178-NJZ106-104-211900- NEW YORK CITY METRO AREA CITY SKY/WX TMP DP RH WIND PRES REMARKS Central Park PTSUNNY 46 27 47 VRB3 30.32F Wall St Helipt NOT AVBL LaGuardia APRT PTSUNNY 47 27 45 S10 30.30F Kennedy INTL PTSUNNY 45 30 55 S12 30.33F Breezy Point N/A 39 N/A N/A SE9 N/A WCI 33 Newark/Liberty CLOUDY 45 30 55 SE7 30.30F Teterboro PTSUNNY 49 29 46 S14G20 30.29F $$ NYZ177-179-078>081-211900- LONG ISLAND NEW YORK CITY SKY/WX TMP DP RH WIND PRES REMARKS Jones Beach N/A 39 N/A N/A SE7 N/A WCI 34 Matinecock PT NOT AVBL Farmingdale MOSUNNY 45 27 49 S13G20 30.31F MacArthur/ISP PTSUNNY 44 26 49 S10 30.30F Shirley MOSUNNY 44 19 36 SW7 30.32F Westhampton CLOUDY 43 23 45 S8 30.33F Southampton NOT AVBL Bridgehampton NOT AVBL East Hampton N/A 42 25 51 S7 30.31F Montauk N/A 42 29 59 VRB3 30.32F $$ NYZ052-065-067-211900- HUDSON VALLEY CITY SKY/WX TMP DP RH WIND PRES REMARKS White Plains MOSUNNY 44 23 43 S12 30.28F Newburgh PTSUNNY 45 23 42 CALM 30.28F Montgomery CLOUDY 44 23 43 VRB5 30.25F Poughkeepsie CLOUDY 44 20 38 SW12 30.27F Albany CLOUDY 42 15 33 S13G25 30.23F $$ NJZ001-105-106-008-010-013-015-019>022-104-211900- NEW JERSEY CITY SKY/WX TMP DP RH WIND PRES REMARKS Newark/Liberty CLOUDY 45 30 55 SE7 30.30F Teterboro PTSUNNY 49 29 46 S14G20 30.29F Caldwell MOSUNNY 45 25 45 S5G16 30.29F Somerville CLOUDY 48 28 46 S8 30.27F Linden NOT AVBL Sussex CLOUDY 46 27 47 S8 30.25F Andover N/A 45 26 47 SW9 30.25F Trenton MOSUNNY 49 27 42 S9 30.28F Millville CLOUDY 48 34 58 VRB7 30.30F Atlantic City MOSUNNY 48 29 47 S8 30.30F Wrightstown PTSUNNY 50 28 41 CALM 30.26F Toms River MOSUNNY 49 31 49 SE10 30.30F Belmar CLOUDY 45 29 53 SE10 30.31F $$ PAZ047>061-062-071-211900- EASTERN PENNSYLVANIA CITY SKY/WX TMP DP RH WIND PRES REMARKS Philadelphia CLOUDY 49 29 46 SW9 30.29F Allentown CLOUDY 48 26 42 S8 30.27F Scranton MOSUNNY 45 17 32 S9 30.18F $$ CTZ002-004>006-009-010-012-RIZ004-006-007-MAZ004-011-015-211900- SOUTHERN NEW ENGLAND IN CT CITY SKY/WX TMP DP RH WIND PRES REMARKS Bradley INTL CLOUDY 42 17 36 S6 30.28F Hartford CLOUDY 43 19 38 S9 30.29F Danbury CLOUDY 42 15 33 SW5 30.28F Wtrbury/Oxford PTSUNNY 43 16 33 SW8 30.28F Bridgeport MOSUNNY 42 25 50 E5 30.30F Meriden CLOUDY 44 15 31 S7 30.29F New Haven PTSUNNY 42 22 44 S6 30.31F Chester N/A 43 16 33 VRB7 30.29F Groton CLOUDY 40 29 64 S7 30.30F Wilimantic CLOUDY 45 15 30 S7 30.29F IN RI CITY SKY/WX TMP DP RH WIND PRES REMARKS Providence CLOUDY 44 19 36 E5 30.30F Block Island MOSUNNY 40 27 59 S5 30.33F Westerly MOSUNNY 41 22 46 S7 30.31F IN MA CITY SKY/WX TMP DP RH WIND PRES REMARKS Boston PTSUNNY 39 28 64 SE9 30.31F WCI 33 Worcester CLOUDY 40 10 29 SW7 30.24F Westfield CLOUDY 40 16 37 S9 30.27F WCI 34 Provincetown SUNNY 40 25 55 NE8 30.32F WCI 34 Nantucket SUNNY 43 26 51 N10 30.31F $$ ANZ330-335-338-340-345-350-353-355-211900- COASTAL MARINE OBSERVATIONS STATION/POSITION TIME SKY/WX TEMP WIND PRES VSBY WAVE AIR SEA DIR/SP/G HT/PER (UTC) (F) (DEG/KT/KT) (MB) (MI) (FT/S) NY HARB ENTRANCE 1650 40 42 90/ 8/ 10 1027.5 2/ 5 20 S FIRE ISLAND 1750 42 43 140/ 4/ 6 1026.8 2/ 5 GREAT SOUTH BAY NOT AVBL 23 SSW MONTAUK P 1650 40 45 1028.5 2/ 5 15 E BARNEGAT LI 1730 44 N/A 3/ 6 HUDSON CANYON 1750 49 1026.5 3/ 8 KINGS POINT 1748 40 39 1026.2 EXECUTION ROCKS NOT AVBL CENTRAL LI SOUND 1715 39 CALM / 2 N/A 0 EASTERN LI SOUND NOT AVBL ROBBINS REEF 1748 40 160/ 12/ 13 1026.4 $$ >>>>>>>>>>>>>>>>>>>>>>>>>>>> KEY <<<<<<<<<<<<<<<<<<<<<<<<<<< > < > SKY/WX - Sky Condition/Present Weather < > TMP - Temperature in Fahrenheit < > DP - Dew Point in Fahrenheit < > RH - Relative Humidity in Percent < > WIND - Direction (from) and Speed in MPH < > PRES - Mean Sea Level Pressure (inches of Hg) < > WCI - Wind Chill Index < > VSB - VISIBILITY IN MILES < > HX - HEAT INDEX < > TC - TEMPERATURE IN CELSIUS < > VRB - VARIABLE WIND DIRECTION < > < >>>>>>>>>>>>>>>>>>>>>>>>>>>> KEY <<<<<<<<<<<<<<<<<<<<<<<<<<<

USA.gov is the U.S. government's official web portal to all federal, state and local government web resources and services.